Regional Weather Roundup
Issued by NWS

Home | Current Version | Previous Version | Text Only | Print | Product List | Glossary On
Versions: 1 2 3 4 5 6 7 8 9 10 11 12 13 14 15 16 17 18 19 20 21 22 23 24 25 26 27 28 29 30 31 32 33 34 35 36 37 38 39 40 41 42 43 44 45 46 47 48 49 50
377
ASUS43 KDTX 132010
RWRMI
MICHIGAN HOURLY REGIONAL WEATHER ROUNDUP
NATIONAL WEATHER SERVICE DETROIT/PONTIAC MI
300 PM EST SAT FEB 13 2016

NOTE: "FAIR" INDICATES FEW OR NO CLOUDS BELOW 12,000 FEET WITH NO
SIGNIFICANT WEATHER AND/OR OBSTRUCTION TO VISIBILITY.

MIZ047>049-052>055-059>063-066>070-074>076-081>083-132100-
SOUTHEAST LOWER MICHIGAN

CITY           SKY/WX    TMP DP  RH WIND       PRES   REMARKS
ADRIAN         PTSUNNY   14   3  61 NW7       30.43F WCI   4
ALMA           CLOUDY    16   2  55 W13       30.42S WCI   2
ANN ARBOR      CLOUDY    14   0  53 W15G26    30.41F WCI  -1
BAD AXE        SUNNY      6  -7  55 W13       30.42S WCI -10
CARO           SUNNY      9  -4  56 W5        30.43S WCI   0
DETROIT CITY   PTSUNNY   14  -5  42 NW12G21   30.42F WCI   0
DETROIT        FLURRIES  16   3  57 NW9       30.43F WCI   4
FLINT          SUNNY     13  -2  51 NW14      30.42F WCI  -2
GROSSE ILE     LGT SNOW  14   5  67 NW9       30.43S WCI   2
HILLSDALE      LGT SNOW  13   4  65 NW12      30.39F WCI   0
HOWELL         CLOUDY    13   5  68 N7        30.40S WCI   3

CITY           SKY/WX    TMP DP  RH WIND       PRES   REMARKS
JACKSON        CLOUDY    15   0  51 W16       30.40F WCI  -1
LAMBERTVILLE   CLOUDY    16   3  57 W14G20    30.44F WCI   1
LANSING        CLOUDY    15  -1  49 NW14      30.42F WCI   0
LAPEER         FAIR       9  -2  60 NW9       30.42S WCI  -4
MASON          CLOUDY    14   1  55 NW13G21   30.41S WCI   0
MONROE         CLOUDY    16   1  53 NW10      30.43S WCI   3
MT. CLEMENS    MOSUNNY   11  -2  53 NW16G22   30.41F WCI  -5
PONTIAC        PTSUNNY   12  -2  53 NW14      30.38S WCI  -3
PORT HOPE        N/A      7  -4  60 NW17G29   30.40S WCI -12
PORT HURON     MOSUNNY    9  -4  56 NW14G20   30.43S WCI  -8
TRI CITIES     HAZE      10  -2  58 CALM      30.44F VSB<1/4
MIDLAND        FAIR      13  -4  46 N8        30.42F WCI   2
TROY           CLOUDY    15  -1  48 NW14G21   30.43S WCI   0
SAGINAW HB     SUNNY     10   0  61 CALM      30.44S
$$
MIZ043>046-050>051-056>058-064>065-071>073-077>080-132100-
SOUTHWEST LOWER MICHIGAN

CITY           SKY/WX    TMP DP  RH WIND       PRES   REMARKS
BATTLE CREEK   LGT SNOW  14   5  67 NW12      30.43F WCI   0
BENTON HARBOR  SNOW      14   7  73 NW10      30.51S VSB 1/2 WCI   1
BIG RAPIDS     CLOUDY    14   5  67 NW9       30.39F WCI   2
COLDWATER      CLOUDY    15   5  64 NW13G21   30.43F HAZE    WCI   2
FREMONT        CLOUDY    12   0  57 N15       30.44F WCI  -4
HOLLAND        LGT SNOW  15   5  64 W12G17    30.48S WCI   2
GRAND RAPIDS   PTSUNNY   16   0  49 W13G25    30.44F WCI   2
IONIA          PTSUNNY   14  -2  49 W12       30.42S WCI   1
KALAMAZOO      LGT SNOW  16   5  62 NW17G23   30.44F WCI   0
LUDINGTON      CLOUDY    12   3  67 NW8       30.47S HAZE    WCI   1
MARSHALL       CLOUDY    15   2  56 NW6G17    30.42S WCI   7
MOUNT PLEASANT LGT SNOW  13   5  70 N3        30.41F
MUSKEGON       LGT SNOW  14   5  67 N13       30.48F WCI   0
SOUTH HAVEN    LGT SNOW  15   6  67 NW10G16   30.49F WCI   3
$$
MIZ016>042-132100-
NORTHERN LOWER MICHIGAN

CITY           SKY/WX    TMP DP  RH WIND       PRES   REMARKS
ALPENA         MOSUNNY    5 -10  50 NW14      30.41S WCI -12
BEAVER ISLAND  CLOUDY    11   2  67 NW8       30.40F WCI  -1
BELLAIRE       CLOUDY    10  -3  56 CALM      30.42F
CADILLAC       LGT SNOW  11   4  73 W6        30.35R VSB 3/4 WCI   1
CHARLEVOIX     CLOUDY     7   1  76 CALM      30.44S HAZE
FRANKFORT      CLOUDY    13   3  66 NW12      30.44F HAZE    WCI  -1
GAYLORD        CLOUDY     7  -6  55 W13       30.33F WCI  -9
GRAYLING       CLOUDY     9  -6  51 NW10      30.36S WCI  -5
HARBOR SPRINGS CLOUDY     8  -1  66 SW6       30.40F WCI  -2
HOUGHTON LAKE  CLOUDY     9  -5  53 VRB6      30.37F WCI  -1
MANISTEE       CLOUDY    12   1  62 NW12      30.46S WCI  -2
OSCODA         PTSUNNY    8 -10  43 NW12G20   30.41S WCI  -7
PELLSTON       CLOUDY     6  -5  60 NW8       30.41F WCI  -7
ROGERS CITY    PTSUNNY    5  -8  54 NW7       30.42F WCI  -7
TRAVERSE CITY  LGT SNOW  11   2  67 W7        30.42S WCI   0
$$
MIZ007>008-015-132100-
EASTERN UPPER MICHIGAN

CITY           SKY/WX    TMP DP  RH WIND       PRES   REMARKS
KINROSS        MOSUNNY    9  -6  52 W6        30.38F WCI  -1
MACKINAC ISLAN CLOUDY     4  -6  64 NW8       30.40S WCI -10
NEWBERRY       CLOUDY     6   0  74 NW3       30.37F HAZE
S. S. MARIE    LGT SNOW   2  -8  63 W6        30.38F WCI  -9
MUNISING         N/A     10   4  76 NW16G25   30.42S WCI  -7
$$
MIZ004>006-011>014-085-132100-
CENTRAL UPPER MICHIGAN

CITY           SKY/WX    TMP DP  RH WIND       PRES   REMARKS
MANISTIQUE     LGT SNOW  11   3  70 NW16G28   30.39F WCI  -6
ESCANABA       SUNNY     12  -8  40 N7G17     30.45S WCI   2
MENOMINEE      SUNNY     12  -6  44 N7        30.46F WCI   2
SAWYER-GWINN   MOSUNNY    7  -4  61 NW15      30.39F WCI -11
$$
MIZ001>003-009>011-084-132100-
WESTERN UPPER MICHIGAN

CITY           SKY/WX    TMP DP  RH WIND       PRES   REMARKS
IRON MOUNTAIN  MIX PCPN  11  -6  46 NW13      30.40F WCI  -4
HOUGHTON       LGT SNOW   5  -3  69 NW13      30.41F WCI -12
COPPER HARBOR    N/A      8   0  69 N13G21    30.45F WCI  -8
IRONWOOD       SUNNY      3  -2  78 W6        30.43F WCI  -8
$$

ABBREVIATIONS USED IN REMARKS
   TC - TEMPERATURE IN CELSIUS
  WCI - WIND CHILL INDEX
   HX - HEAT INDEX
  VSB - VISIBILITY





USA.gov is the U.S. government's official web portal to all federal, state and local government web resources and services.